[[{"header":{"parameterUnit":"m.s-1","parameterCategory":2,"la1":30.2991,"la2":30.254,"lo1":-89.0895,"lo2":-89.0444,"dy":0.0017,"dx":0.0017,"nx":28,"ny":28,"refTime":"2025-07-09T21:00:00:Z","depth":"0","parameterNumber":2,"parameterNumberName":"U-component_of_CURRENTS"},"data":[0,0,0,0,0,0,0,0,0,0,0,0,0,0,0,0,0,0,0,0,0,0,0,0,0,0,0,0,0,0,0,0,0,0,0,0,0,0,0,0,0,0,0,0,0,0,0,0,0,0,0,0,0,0,0,0,0,0,0.017,0.017,0,0.0169,0.0169,0.0169,0.0157,0.0156,0.0156,0.0156,0.0165,0.0166,0.0166,0,0,0,0,0,0,0,0,0,0,0,0,0,0.0181,0.0181,0.017,0.017,0.017,0.0169,0.0169,0.0169,0.0157,0.0156,0.0156,0.0155,0.0165,0.0166,0.0167,0,0,0,0,0,0,0,0,0,0,0,0,0,0.0179,0.018,0.017,0.0163,0.0162,0.0169,0.0169,0.0169,0.0157,0.0156,0.0156,0.0155,0.0165,0.0166,0.0167,0.0185,0,0,0.017,0.017,0,0,0,0,0,0,0,0,0.0179,0.0178,0.0164,0.0163,0.0162,0.0161,0.0176,0.0175,0.0157,0.016,0.0156,0.0155,0.0165,0.0166,0.0168,0.0186,0.0186,0.017,0.017,0.0171,0.0171,0,0,0,0,0,0,0,0.0179,0.0178,0.0171,0.0164,0.0163,0.0166,0.0165,0.0176,0.0167,0.016,0.0159,0.0157,0.0164,0.0167,0.0168,0.0186,0.017,0.0171,0.0171,0.0171,0.0211,0.0212,0,0,0,0,0,0,0.0176,0.0178,0.0171,0.017,0.0168,0.0166,0.0165,0.0163,0.0167,0.0166,0.0157,0.0156,0.0166,0.0167,0.0169,0.0183,0.0171,0.0172,0.0172,0.0211,0.0211,0.0212,0,0,0,0,0,0,0.0177,0.0176,0.0171,0.0174,0.0173,0.0167,0.0165,0.0164,0.0169,0.0164,0.0164,0.0164,0.0166,0.0167,0.0183,0.0184,0.0172,0.0173,0.021,0.0211,0.0212,0.0218,0,0,0,0,0,0,0.0177,0.0176,0.018,0.0173,0.0173,0.0179,0.0165,0.0164,0.0168,0.0167,0.017,0.017,0.0165,0.0181,0.0184,0.0185,0.0174,0.021,0.0211,0.0211,0.0217,0.0218,0.022,0,0,0,0,0,0.0177,0.0189,0.018,0.0179,0.0176,0.0179,0.018,0.0174,0.0169,0.0176,0.0178,0.017,0.0188,0.0183,0.0185,0.0187,0.0209,0.021,0.0211,0.0216,0.0218,0.022,0,0,0,0,0,0,0.0198,0.0188,0.0179,0.0186,0.0183,0.0177,0.0189,0.018,0.0187,0.0189,0.0182,0.0183,0.0195,0.0195,0.019,0.0201,0.0196,0.0197,0.0198,0.02,0.0202,0.0201,0.0174,0,0,0,0,0,0.0203,0.0208,0.0196,0.0204,0.0205,0.0198,0.02,0.0193,0.0195,0.0198,0.0194,0.0196,0.0202,0.0205,0.021,0.0223,0.0241,0.0224,0.0226,0.0227,0.0229,0.0237,0.024,0.0215,0.0215,0.0215,0,0,0.0215,0.0209,0.0213,0.0208,0.0209,0.0214,0.0199,0.0207,0.0207,0.0199,0.0206,0.0205,0.0208,0.0216,0.0221,0.0216,0.0254,0.0228,0.0229,0.0231,0.0239,0.0241,0.0243,0.0216,0.0216,0.0216,0,0,0.0249,0.0236,0.0256,0.025,0.0248,0.0237,0.024,0.0233,0.0228,0.0234,0.0225,0.0225,0.0235,0.023,0.0231,0.0248,0.0263,0.025,0.0255,0.0263,0.0265,0.0267,0.0337,0.0345,0.0248,0.0248,0.0248,0,0.0267,0.0277,0.0263,0.0275,0.0269,0.0248,0.026,0.0255,0.0249,0.0243,0.0238,0.0238,0.024,0.0244,0.0247,0.025,0.0279,0.0246,0.0264,0.0266,0.0268,0.0339,0.0348,0.0248,0.0248,0.0248,0.0248,0,0.0317,0.0313,0.0326,0.0325,0.0318,0.0325,0.0304,0.0298,0.0283,0.0269,0.0266,0.0263,0.0259,0.0258,0.026,0.0268,0.0296,0.0266,0.0258,0.0271,0.0346,0.0355,0.0249,0.0249,0.0249,0.0249,0,0,0.0401,0.0365,0.0374,0.0351,0.0339,0.0329,0.0332,0.0317,0.0304,0.0296,0.0288,0.029,0.0275,0.0277,0.0271,0.0276,0.0326,0.0278,0.0278,0.0347,0.0396,0.0734,0.0776,0.0294,0.0295,0.0295,0.046,0,0.045,0.045,0.043,0.042,0.0408,0.0373,0.0365,0.0343,0.0325,0.031,0.03,0.0295,0.0286,0.0284,0.0287,0.0312,0.0342,0.0288,0.0374,0.0378,0.0675,0.0794,0.0995,0.1186,0.0468,0.047,0.0471,0,0.0531,0.0498,0.0491,0.042,0.0416,0.0403,0.0362,0.0349,0.0327,0.0318,0.0309,0.0305,0.0325,0.0303,0.0366,0.0333,0.0371,0.039,0.0396,0.0713,0.0734,0.1049,0.1229,0.1196,0.0484,0.0483,0.0482,0,0.0587,0.0552,0.0528,0.051,0.0436,0.0418,0.0382,0.035,0.0333,0.0321,0.0338,0.0334,0.0382,0.0382,0.0494,0.0405,0.0603,0.0474,0.0818,0.0842,0.1037,0.1081,0.1196,0.0519,0.0519,0.0518,0.0518,0,0.0649,0.0634,0.0538,0.0516,0.0456,0.0421,0.0371,0.0345,0.0333,0.0366,0.0342,0.0428,0.0404,0.053,0.0539,0.0808,0.0656,0.0879,0.0925,0.1056,0.1098,0.1097,0.1025,0.0524,0.0523,0.0522,0.0521,0,0.072,0.0675,0.0605,0.0503,0.0472,0.0419,0.034,0.0321,0.0333,0.039,0.0406,0.0517,0.0753,0.0815,0.0909,0.0965,0.1158,0.122,0.1442,0.1515,0.1787,0.171,0.1779,0.1789,0.1576,0.1586,0.1594,0,0.0759,0.0734,0.0577,0.0506,0.0451,0.0369,0.033,0.0306,0.0336,0.0501,0.0579,0.0827,0.1099,0.1436,0.1611,0.1803,0.1597,0.2038,0.1902,0.1918,0.1856,0.1608,0.1585,0.2143,0.2155,0.2164,0.2172,0,0.0788,0.0721,0.0625,0.0477,0.0401,0.0366,0.035,0.039,0.0468,0.0611,0.0931,0.1169,0.1623,0.2015,0.2331,0.2419,0.2059,0.2253,0.2159,0.2281,0.2118,0.2114,0.193,0.226,0.2251,0.2245,0.224,0.2236,0.0784,0.0694,0.0552,0.0422,0.0368,0.044,0.0506,0.0593,0.0769,0.1106,0.1254,0.1688,0.2193,0.2738,0.2828,0.3088,0.2773,0.3003,0.29,0.2636,0.2691,0.2796,0.3253,0.3251,0.3248,0.3246,0.3244,0,0.0767,0.0656,0.0517,0.0424,0.0461,0.044,0.0584,0.0747,0.1079,0.1372,0.1725,0.2338,0.2867,0.316,0.3586,0.3635,0.3389,0.3571,0.3161,0.3095,0.3135,0.3214,0.3821,0.3821,0.3821,0.3821,0.3821,0.3821,0.0738,0.0607,0.0519,0.0547,0.0559,0.076,0.0917,0.1163,0.1406,0.191,0.2249,0.2497,0.2921,0.3548,0.3825,0.3828,0.353,0.3591,0.3363,0.3312,0.3242,0.3175,0.323,0.3831,0.383,0.328,0.3276,0.3274]},{"header":{"parameterUnit":"m.s-1","parameterCategory":2,"la1":30.2991,"la2":30.254,"lo1":-89.0895,"lo2":-89.0444,"dy":0.0017,"dx":0.0017,"nx":28,"ny":28,"refTime":"2025-07-09T21:00:00:Z","depth":"0","parameterNumber":3,"parameterNumberName":"V-component_of_CURRENTS"},"data":[0,0,0,0,0,0,0,0,0,0,0,0,0,0,0,0,0,0,0,0,0,0,0,0,0,0,0,0,0,0,0,0,0,0,0,0,0,0,0,0,0,0,0,0,0,0,0,0,0,0,0,0,0,0,0,0,0,0,-0.0872,-0.0872,0,-0.0896,-0.0897,-0.0897,-0.0892,-0.0891,-0.0891,-0.089,-0.0927,-0.0928,-0.0929,0,0,0,0,0,0,0,0,0,0,0,0,0,-0.0788,-0.079,-0.0872,-0.0872,-0.0872,-0.0896,-0.0897,-0.0897,-0.0892,-0.0891,-0.0891,-0.089,-0.0926,-0.0928,-0.093,0,0,0,0,0,0,0,0,0,0,0,0,0,-0.082,-0.079,-0.0872,-0.0872,-0.0873,-0.0896,-0.0897,-0.0897,-0.0892,-0.0891,-0.0891,-0.089,-0.0926,-0.0928,-0.093,-0.0957,0,0,-0.0936,-0.0937,0,0,0,0,0,0,0,0,-0.0818,-0.0823,-0.0872,-0.0872,-0.0873,-0.089,-0.088,-0.0918,-0.0892,-0.0885,-0.089,-0.0889,-0.0916,-0.0919,-0.0925,-0.0959,-0.0961,-0.0936,-0.0938,-0.0939,-0.0939,0,0,0,0,0,0,0,-0.0816,-0.0822,-0.0882,-0.0872,-0.0873,-0.086,-0.0865,-0.0887,-0.0905,-0.0885,-0.0885,-0.0888,-0.0916,-0.0923,-0.0926,-0.0961,-0.0936,-0.0938,-0.094,-0.094,-0.1018,-0.1018,0,0,0,0,0,0,-0.0815,-0.082,-0.0881,-0.0882,-0.0843,-0.0863,-0.0867,-0.0885,-0.0904,-0.0906,-0.0888,-0.0887,-0.092,-0.0924,-0.0927,-0.0987,-0.0939,-0.0941,-0.0942,-0.1017,-0.1018,-0.1019,0,0,0,0,0,0,-0.0814,-0.0821,-0.088,-0.085,-0.0857,-0.0865,-0.0885,-0.0886,-0.0895,-0.0906,-0.0908,-0.0896,-0.0919,-0.0924,-0.0958,-0.0988,-0.0942,-0.0943,-0.1016,-0.1017,-0.1018,-0.1091,0,0,0,0,0,0,-0.0812,-0.0821,-0.0838,-0.0851,-0.0859,-0.0907,-0.0886,-0.0887,-0.0897,-0.0896,-0.0913,-0.0916,-0.0919,-0.0955,-0.0961,-0.099,-0.0945,-0.1015,-0.1016,-0.1018,-0.1088,-0.1095,-0.11,0,0,0,0,0,-0.0809,-0.0845,-0.0839,-0.0846,-0.0881,-0.0908,-0.0911,-0.0913,-0.0898,-0.0915,-0.0923,-0.0915,-0.0967,-0.0958,-0.0964,-0.0995,-0.1014,-0.1016,-0.1018,-0.1085,-0.1093,-0.11,0,0,0,0,0,0,-0.0822,-0.0848,-0.0842,-0.0885,-0.0896,-0.0907,-0.0929,-0.0918,-0.0937,-0.0938,-0.0935,-0.094,-0.0975,-0.0973,-0.0963,-0.1017,-0.0986,-0.0989,-0.1035,-0.1043,-0.1049,-0.1077,-0.0947,0,0,0,0,0,-0.083,-0.0866,-0.0876,-0.0911,-0.092,-0.092,-0.0931,-0.093,-0.0945,-0.0951,-0.0959,-0.0969,-0.0987,-0.1005,-0.1017,-0.106,-0.1026,-0.1077,-0.1084,-0.1089,-0.1115,-0.1092,-0.1099,-0.1024,-0.1024,-0.1024,0,0,-0.0848,-0.0865,-0.0887,-0.0916,-0.0927,-0.0965,-0.0927,-0.0953,-0.0984,-0.0955,-0.1002,-0.0992,-0.1,-0.1042,-0.1058,-0.1048,-0.1084,-0.1092,-0.1097,-0.1119,-0.1095,-0.1102,-0.1109,-0.1026,-0.1025,-0.1025,0,0,-0.0913,-0.0914,-0.097,-0.0982,-0.1002,-0.1001,-0.1008,-0.1019,-0.1024,-0.1063,-0.1043,-0.1053,-0.1088,-0.1098,-0.1108,-0.1157,-0.1112,-0.1153,-0.1224,-0.1202,-0.1208,-0.1213,-0.114,-0.1139,-0.1165,-0.1165,-0.1165,0,-0.0926,-0.0997,-0.0988,-0.1039,-0.1052,-0.1021,-0.1071,-0.1081,-0.11,-0.1104,-0.1091,-0.1114,-0.112,-0.1161,-0.1188,-0.1175,-0.1137,-0.1197,-0.1211,-0.1216,-0.122,-0.1144,-0.1142,-0.1169,-0.1168,-0.1168,-0.1168,0,-0.1041,-0.1081,-0.1114,-0.1165,-0.1177,-0.1212,-0.1212,-0.1221,-0.1209,-0.1209,-0.1229,-0.1226,-0.1229,-0.1237,-0.1245,-0.1277,-0.1227,-0.1213,-0.1194,-0.1232,-0.1149,-0.1145,-0.1174,-0.1173,-0.1172,-0.1171,0,0,-0.1105,-0.1179,-0.1192,-0.1198,-0.1238,-0.124,-0.1297,-0.1317,-0.1299,-0.1336,-0.1322,-0.1387,-0.1344,-0.1353,-0.1332,-0.1346,-0.1335,-0.1313,-0.131,-0.1245,-0.1249,-0.1105,-0.1085,-0.1325,-0.1326,-0.1327,-0.1164,0,-0.1192,-0.1289,-0.1313,-0.1369,-0.1396,-0.1376,-0.1399,-0.1403,-0.1387,-0.1359,-0.1372,-0.1338,-0.1397,-0.1349,-0.1397,-0.1318,-0.1335,-0.1378,-0.122,-0.1214,-0.1086,-0.108,-0.0952,-0.0788,-0.1159,-0.1159,-0.1158,0,-0.1303,-0.1336,-0.1419,-0.1406,-0.1413,-0.143,-0.1397,-0.1409,-0.1387,-0.1362,-0.1374,-0.1337,-0.1351,-0.1366,-0.1348,-0.1369,-0.1345,-0.1311,-0.1302,-0.115,-0.1064,-0.0818,-0.0766,-0.0951,-0.1151,-0.1152,-0.1152,0,-0.1322,-0.1395,-0.1444,-0.1454,-0.1456,-0.1454,-0.1433,-0.141,-0.1337,-0.1323,-0.122,-0.1295,-0.118,-0.1258,-0.1202,-0.1269,-0.1134,-0.1192,-0.1052,-0.1038,-0.089,-0.0862,-0.1006,-0.121,-0.1211,-0.1211,-0.1211,0,-0.1388,-0.1413,-0.1438,-0.1449,-0.1419,-0.1426,-0.1351,-0.1345,-0.1247,-0.1082,-0.1182,-0.1013,-0.1144,-0.1067,-0.115,-0.1039,-0.1081,-0.1059,-0.0996,-0.0904,-0.088,-0.1002,-0.1115,-0.1205,-0.1206,-0.1207,-0.1208,0,-0.1393,-0.144,-0.145,-0.1448,-0.1425,-0.1384,-0.1236,-0.113,-0.1079,-0.0851,-0.0809,-0.0738,-0.0623,-0.0728,-0.073,-0.0833,-0.0854,-0.0787,-0.0642,-0.0568,-0.0667,-0.0785,-0.0771,-0.082,-0.0642,-0.0638,-0.0634,0,-0.1393,-0.1423,-0.1412,-0.135,-0.1335,-0.1249,-0.113,-0.1055,-0.0872,-0.0618,-0.0439,-0.0299,-0.0096,-0.0078,-0.0255,-0.0352,-0.0576,-0.0333,-0.0483,-0.0652,-0.0739,-0.0828,-0.0881,-0.0293,-0.0287,-0.0282,-0.0278,0,-0.1356,-0.1376,-0.1367,-0.1249,-0.1131,-0.0952,-0.0758,-0.0589,-0.0395,-0.0171,0.0206,0.0371,0.0406,0.0423,0.024,0.0109,-0.0414,-0.023,-0.0458,-0.0527,-0.0579,-0.0598,-0.0404,-0.0233,-0.0237,-0.0241,-0.0243,-0.0245,-0.1282,-0.1263,-0.1226,-0.1086,-0.0916,-0.0587,-0.0333,-0.0094,0.026,0.0715,0.0759,0.1116,0.0976,0.0773,0.05,0.0066,-0.0024,-0.0088,-0.0221,-0.03,-0.0361,-0.0043,0.0222,0.0221,0.0219,0.0218,0.0216,0,-0.1144,-0.1121,-0.1019,-0.0768,-0.0448,-0.0416,0.0005,0.0331,0.0827,0.1138,0.1492,0.1726,0.149,0.1063,0.0488,0.0119,-0.0107,-0.011,-0.029,-0.0355,-0.0096,-0.0102,0.0171,0.0171,0.0171,0.0171,0.0171,0.0171,-0.1046,-0.0957,-0.0906,-0.0356,-0.0115,0.0429,0.0727,0.1095,0.1405,0.1942,0.2224,0.2393,0.213,0.102,0.0201,-0.0062,-0.0456,-0.0404,-0.0648,-0.0581,-0.0594,-0.0607,-0.0647,-0.0493,-0.0494,-0.0836,-0.084,-0.0843]}],[{"header":{"parameterUnit":"m.s-1","parameterCategory":2,"la1":30.2991,"la2":30.254,"lo1":-89.0895,"lo2":-89.0444,"dy":0.0017,"dx":0.0017,"nx":28,"ny":28,"refTime":"2025-07-09T21:00:00:Z","depth":"2","parameterNumber":2,"parameterNumberName":"U-component_of_CURRENTS"},"data":[0,0,0,0,0,0,0,0,0,0,0,0,0,0,0,0,0,0,0,0,0,0,0,0,0,0,0,0,0,0,0,0,0,0,0,0,0,0,0,0,0,0,0,0,0,0,0,0,0,0,0,0,0,0,0,0,0,0,-0.0034,-0.0034,0,-0.0012,-0.0012,-0.0011,-0.0025,-0.0025,-0.0026,-0.0026,-0.0061,-0.0061,-0.0062,0,0,0,0,0,0,0,0,0,0,0,0,0,-0.0096,-0.0095,-0.0034,-0.0034,-0.0034,-0.0012,-0.0012,-0.0011,-0.0025,-0.0025,-0.0026,-0.0027,-0.0061,-0.0061,-0.0062,0,0,0,0,0,0,0,0,0,0,0,0,0,-0.0072,-0.0094,-0.0034,-0.0037,-0.0037,-0.0012,-0.0012,-0.0011,-0.0024,-0.0025,-0.0026,-0.0027,-0.0061,-0.0061,-0.0062,-0.0049,0,0,-0.0064,-0.0064,0,0,0,0,0,0,0,0,-0.0073,-0.007,-0.0037,-0.0037,-0.0037,-0.0021,-0.0046,-0.0026,-0.0024,-0.003,-0.0026,-0.0027,-0.0052,-0.0053,-0.0047,-0.005,-0.0052,-0.0064,-0.0064,-0.0064,-0.0064,0,0,0,0,0,0,0,-0.0075,-0.0071,-0.0026,-0.0036,-0.0036,-0.0041,-0.0039,-0.0042,-0.0038,-0.003,-0.003,-0.0026,-0.0052,-0.0047,-0.0049,-0.0052,-0.0064,-0.0064,-0.0065,-0.0065,-0.003,-0.0028,0,0,0,0,0,0,-0.0074,-0.0072,-0.0027,-0.0026,-0.0056,-0.0039,-0.0037,-0.0026,-0.0037,-0.0039,-0.0025,-0.0027,-0.0045,-0.0048,-0.005,-0.0051,-0.0064,-0.0065,-0.0065,-0.0031,-0.0029,-0.0028,0,0,0,0,0,0,-0.0075,-0.007,-0.0028,-0.0048,-0.0043,-0.0037,-0.0025,-0.0025,-0.0019,-0.0033,-0.0036,-0.002,-0.0046,-0.0049,-0.0039,-0.0052,-0.0065,-0.0066,-0.0032,-0.003,-0.0029,-0.0043,0,0,0,0,0,0,-0.0077,-0.007,-0.0062,-0.0048,-0.0042,-0.0017,-0.0024,-0.0024,-0.0015,-0.0016,-0.0029,-0.0033,-0.0047,-0.0038,-0.004,-0.0053,-0.0066,-0.0034,-0.0032,-0.0029,-0.0044,-0.0041,-0.0039,0,0,0,0,0,-0.0079,-0.0067,-0.0062,-0.0056,-0.003,-0.0017,-0.0015,-0.0015,-0.0014,-0.0012,-0.0007,-0.0033,-0.0024,-0.0037,-0.0039,-0.0053,-0.0035,-0.0032,-0.0029,-0.0045,-0.0042,-0.0039,0,0,0,0,0,0,-0.0094,-0.0067,-0.0061,-0.0042,-0.0031,-0.0019,-0.0013,-0.0009,-0.0002,-0.0002,-0.0014,-0.0017,-0.0014,-0.0017,-0.0031,-0.003,-0.0035,-0.0032,-0.0045,-0.0043,-0.004,-0.0043,-0.0067,0,0,0,0,0,-0.009,-0.0071,-0.0053,-0.0038,-0.0031,-0.0019,-0.0012,-0.0009,-0.0001,0.0002,-0.0003,-0.0002,-0.0002,-0.0009,-0.0006,-0.0006,0.0021,-0.0013,-0.0011,-0.0009,-0.0008,0.0001,0.0003,-0.0018,-0.0018,-0.0019,0,0,-0.009,-0.0073,-0.0062,-0.0039,-0.0028,-0.0018,-0.0017,-0.0004,0.0001,-0.0003,0.0004,0.0007,0.0005,0.0005,0.0005,-0.0004,0.0029,-0.0005,-0.0005,-0.0005,0.0004,0.0005,0.0007,-0.0016,-0.0017,-0.0017,0,0,-0.008,-0.0066,-0.0046,-0.0037,-0.0018,-0.0013,-0.0008,0.0008,0.0008,0.002,0.0021,0.0026,0.0023,0.0019,0.0016,0.0039,0.0045,0.0035,0.003,0.0039,0.0039,0.004,0.0143,0.0153,0.0028,0.0028,0.0028,0,-0.0084,-0.0055,-0.0041,-0.0025,-0.0021,-0.0011,-0.0001,0.0006,0.0022,0.0019,0.002,0.0029,0.0028,0.0024,0.0033,0.0038,0.0075,0.0011,0.0038,0.0039,0.004,0.0145,0.0156,0.0028,0.0028,0.0028,0.0028,0,-0.0057,-0.0041,-0.0031,-0.0007,-0.0005,0.0007,0.0013,0.0017,0.0018,0.002,0.0023,0.0032,0.0027,0.0032,0.0036,0.0042,0.0082,0.0042,0.0022,0.0041,0.0152,0.0163,0.0027,0.0027,0.0027,0.0027,0,0,-0.0037,-0.0017,-0.0009,-0.0028,0.0004,-0.0013,0.0009,0.001,-0.0002,0.0016,0.0012,0.0022,0.0018,0.0019,0.0023,0.0036,0.0101,0.0041,0.0041,0.013,0.0191,0.0356,0.0386,0.0049,0.005,0.005,0.0288,0,-0.0018,-0.0018,0.0011,-0.0005,-0.0023,-0.0008,-0.0009,-0.0012,-0.0005,-0.0005,0.0009,0.0012,0.0014,0.0011,0.0021,0.0086,0.0121,0.0046,0.0171,0.0177,0.0307,0.0399,0.0215,0.0421,0.03,0.0302,0.0303,0,0.0021,-0.0009,-0.0026,-0.0062,-0.0064,-0.0076,-0.0105,-0.0097,-0.0078,-0.0066,-0.0051,-0.0024,0.0031,0.0008,0.0124,0.0074,0.013,0.0179,0.0188,0.0347,0.0362,0.0372,0.0447,0.0323,0.0321,0.032,0.0319,0,-0.0019,-0.002,-0.0059,-0.0068,-0.0105,-0.0129,-0.0142,-0.0137,-0.0095,-0.01,-0.003,-0.0025,0.0067,0.008,0.0244,0.0162,0.0406,0.0295,0.0506,0.0522,0.0397,0.0401,0.0352,0.0351,0.0351,0.035,0.0349,0,-0.0015,-0.0044,-0.0105,-0.0147,-0.0214,-0.0216,-0.0228,-0.0247,-0.0172,-0.007,-0.0071,0.0068,0.0089,0.0257,0.0283,0.0515,0.0447,0.0553,0.059,0.0401,0.0403,0.0313,0.0305,0.0359,0.0357,0.0355,0.0354,0,-0.0059,-0.006,-0.015,-0.0232,-0.0241,-0.0319,-0.0244,-0.0188,-0.0159,-0.0004,0.003,0.02,0.0428,0.052,0.0644,0.0665,0.0782,0.0865,0.0717,0.0734,0.087,0.0859,0.1076,0.1084,0.1091,0.1096,0.1101,0,-0.0082,-0.0139,-0.0249,-0.0232,-0.0267,-0.0306,-0.0236,-0.0212,-0.0088,0.0132,0.026,0.0511,0.072,0.1012,0.1055,0.1171,0.1094,0.1087,0.0873,0.0929,0.0942,0.0921,0.0901,0.072,0.0721,0.0721,0.0722,0,-0.0178,-0.0223,-0.0283,-0.0249,-0.0212,-0.0164,-0.0075,0.0006,0.0144,0.0285,0.0567,0.0726,0.1039,0.1126,0.1306,0.1295,0.1033,0.1119,0.1191,0.0592,0.0618,0.0624,0.061,0.073,0.0729,0.0729,0.0728,0.0728,-0.0234,-0.0275,-0.0272,-0.0218,-0.0138,0.0007,0.0057,0.0226,0.0376,0.0602,0.0761,0.0963,0.1037,0.1256,0.1288,0.1265,0.129,0.1118,0.1101,0.1087,0.1031,0.1069,0.1261,0.1263,0.1265,0.1267,0.1268,0,-0.0269,-0.022,-0.0165,-0.0084,0.007,0.0088,0.0248,0.0325,0.0501,0.0707,0.0899,0.0943,0.1046,0.1132,0.1116,0.1146,0.0961,0.1077,0.0774,0.0769,0.0763,0.0676,0.082,0.0819,0.0819,0.0818,0,0,-0.0252,-0.0173,-0.0099,0.0144,0.0231,0.0387,0.0462,0.053,0.0633,0.0771,0.0875,0.1035,0.1101,0.0986,0.0949,0.0901,0.081,0.0842,0.1187,0.0822,0.0816,0.0768,0.0631,0,0,0,0,0]},{"header":{"parameterUnit":"m.s-1","parameterCategory":2,"la1":30.2991,"la2":30.254,"lo1":-89.0895,"lo2":-89.0444,"dy":0.0017,"dx":0.0017,"nx":28,"ny":28,"refTime":"2025-07-09T21:00:00:Z","depth":"2","parameterNumber":3,"parameterNumberName":"V-component_of_CURRENTS"},"data":[0,0,0,0,0,0,0,0,0,0,0,0,0,0,0,0,0,0,0,0,0,0,0,0,0,0,0,0,0,0,0,0,0,0,0,0,0,0,0,0,0,0,0,0,0,0,0,0,0,0,0,0,0,0,0,0,0,0,-0.0276,-0.0276,0,-0.0292,-0.0292,-0.0292,-0.0315,-0.0316,-0.0316,-0.0316,-0.031,-0.031,-0.0309,0,0,0,0,0,0,0,0,0,0,0,0,0,-0.025,-0.0251,-0.0276,-0.0276,-0.0276,-0.0292,-0.0292,-0.0292,-0.0315,-0.0316,-0.0316,-0.0317,-0.0311,-0.031,-0.0309,0,0,0,0,0,0,0,0,0,0,0,0,0,-0.0263,-0.0251,-0.0276,-0.029,-0.0292,-0.0292,-0.0292,-0.0292,-0.0315,-0.0316,-0.0316,-0.0317,-0.0311,-0.031,-0.0309,-0.0291,0,0,-0.0307,-0.0306,0,0,0,0,0,0,0,0,-0.0262,-0.0264,-0.0288,-0.0289,-0.0291,-0.0302,-0.0281,-0.0291,-0.0315,-0.0306,-0.0316,-0.0317,-0.0305,-0.0305,-0.0306,-0.029,-0.029,-0.0306,-0.0306,-0.0306,-0.0305,0,0,0,0,0,0,0,-0.0261,-0.0263,-0.0282,-0.0288,-0.029,-0.029,-0.0293,-0.0283,-0.0301,-0.0306,-0.0308,-0.031,-0.0306,-0.0307,-0.0306,-0.029,-0.0306,-0.0306,-0.0305,-0.0305,-0.0265,-0.0264,0,0,0,0,0,0,-0.026,-0.0262,-0.0281,-0.0282,-0.0278,-0.029,-0.0293,-0.0298,-0.0302,-0.0303,-0.031,-0.0311,-0.0308,-0.0307,-0.0306,-0.0319,-0.0306,-0.0305,-0.0304,-0.0265,-0.0265,-0.0264,0,0,0,0,0,0,-0.026,-0.0262,-0.0281,-0.0273,-0.0275,-0.029,-0.0295,-0.0298,-0.0307,-0.0304,-0.0306,-0.0317,-0.0309,-0.0307,-0.0304,-0.0318,-0.0304,-0.0304,-0.0266,-0.0265,-0.0264,-0.0323,0,0,0,0,0,0,-0.0259,-0.0262,-0.0267,-0.0273,-0.0276,-0.0286,-0.0294,-0.0298,-0.0307,-0.0309,-0.0311,-0.0311,-0.0309,-0.0306,-0.0304,-0.0316,-0.0303,-0.0267,-0.0266,-0.0265,-0.0322,-0.0324,-0.0326,0,0,0,0,0,-0.0258,-0.0262,-0.0267,-0.0269,-0.0282,-0.0286,-0.0288,-0.03,-0.0307,-0.031,-0.0312,-0.0311,-0.0297,-0.0305,-0.0302,-0.0315,-0.0267,-0.0266,-0.0265,-0.032,-0.0324,-0.0326,0,0,0,0,0,0,-0.025,-0.0265,-0.027,-0.0278,-0.0284,-0.029,-0.0296,-0.0301,-0.0306,-0.031,-0.0308,-0.0308,-0.0309,-0.0294,-0.0303,-0.0296,-0.028,-0.0278,-0.0323,-0.0326,-0.0328,-0.0361,-0.0302,0,0,0,0,0,-0.0251,-0.026,-0.0269,-0.0275,-0.0279,-0.0288,-0.0292,-0.0299,-0.0303,-0.0307,-0.0307,-0.0301,-0.0299,-0.03,-0.029,-0.0288,-0.0264,-0.0289,-0.0292,-0.0294,-0.0316,-0.0276,-0.0278,-0.026,-0.026,-0.026,0,0,-0.0247,-0.0258,-0.0262,-0.0274,-0.0281,-0.0295,-0.0293,-0.03,-0.0315,-0.0303,-0.0319,-0.0309,-0.0298,-0.0301,-0.03,-0.0295,-0.0283,-0.0293,-0.0295,-0.0316,-0.0275,-0.0277,-0.0279,-0.0259,-0.0259,-0.0259,0,0,-0.0248,-0.0257,-0.0268,-0.0279,-0.0292,-0.0298,-0.0302,-0.031,-0.0319,-0.0329,-0.0324,-0.0326,-0.0318,-0.032,-0.0319,-0.0323,-0.0295,-0.0309,-0.0356,-0.0316,-0.0318,-0.0319,-0.0284,-0.0282,-0.0313,-0.0313,-0.0313,0,-0.0243,-0.0262,-0.0269,-0.0287,-0.0298,-0.0303,-0.0316,-0.0327,-0.0333,-0.0332,-0.0341,-0.0329,-0.0334,-0.0335,-0.0358,-0.0334,-0.0303,-0.0353,-0.0322,-0.0323,-0.0323,-0.0287,-0.0283,-0.0316,-0.0315,-0.0315,-0.0315,0,-0.0253,-0.0274,-0.0281,-0.0309,-0.032,-0.033,-0.0347,-0.0352,-0.0363,-0.0367,-0.0367,-0.0371,-0.0361,-0.0367,-0.0383,-0.0383,-0.0357,-0.0329,-0.0323,-0.0329,-0.0289,-0.0285,-0.032,-0.0319,-0.0318,-0.0317,0,0,-0.0223,-0.0278,-0.0283,-0.0295,-0.0333,-0.0332,-0.0362,-0.0372,-0.0354,-0.0389,-0.0368,-0.042,-0.0409,-0.0408,-0.0405,-0.0408,-0.0406,-0.0392,-0.0388,-0.0373,-0.0317,-0.0398,-0.04,-0.0368,-0.0368,-0.0368,-0.0286,0,-0.0227,-0.0269,-0.0294,-0.0319,-0.0336,-0.0353,-0.0361,-0.0371,-0.037,-0.0345,-0.0374,-0.0347,-0.0424,-0.0398,-0.0429,-0.039,-0.0399,-0.0431,-0.0301,-0.0298,-0.0382,-0.04,-0.0403,-0.0339,-0.0281,-0.0281,-0.028,0,-0.0226,-0.0255,-0.0297,-0.031,-0.0313,-0.0325,-0.0313,-0.0316,-0.0303,-0.0293,-0.0305,-0.0295,-0.0325,-0.0359,-0.0366,-0.0378,-0.0377,-0.0365,-0.0359,-0.042,-0.0372,-0.0323,-0.0334,-0.0273,-0.0273,-0.0274,-0.0274,0,-0.02,-0.0243,-0.0277,-0.0292,-0.0317,-0.0319,-0.0313,-0.0302,-0.026,-0.0242,-0.0189,-0.023,-0.02,-0.0235,-0.0286,-0.0298,-0.027,-0.0251,-0.0325,-0.0328,-0.0302,-0.0306,-0.0255,-0.0255,-0.0255,-0.0255,-0.0256,0,-0.0182,-0.0204,-0.0265,-0.0281,-0.0259,-0.0289,-0.0233,-0.023,-0.0175,-0.0111,-0.0151,-0.0108,-0.0169,-0.0172,-0.0236,-0.0293,-0.0226,-0.0354,-0.0324,-0.0322,-0.0328,-0.0248,-0.0249,-0.0252,-0.0253,-0.0253,-0.0254,0,-0.0153,-0.0199,-0.0232,-0.0267,-0.0254,-0.0241,-0.0165,-0.0108,-0.0078,0.0011,0.0027,0.002,-0.002,-0.0089,-0.0114,-0.0202,-0.0245,-0.0276,-0.0292,-0.0271,-0.0334,-0.0337,-0.0328,-0.033,-0.0332,-0.0334,-0.0336,0,-0.0138,-0.0173,-0.0219,-0.0193,-0.0205,-0.0164,-0.0108,-0.0067,-0.0009,0.0074,0.0115,0.0114,0.0069,-0.0024,-0.0162,-0.0269,-0.027,-0.0333,-0.0391,-0.0376,-0.0346,-0.0347,-0.0348,-0.0349,-0.035,-0.0352,-0.0353,0,-0.0127,-0.0175,-0.0196,-0.0148,-0.0104,-0.0048,0.0013,0.0071,0.0121,0.0183,0.0214,0.0192,0.0083,-0.0069,-0.0234,-0.0309,-0.033,-0.0365,-0.0295,-0.0367,-0.04,-0.037,-0.0368,-0.0363,-0.0362,-0.0361,-0.0361,-0.036,-0.0124,-0.0128,-0.0152,-0.0093,-0.0032,0.0022,0.0067,0.0134,0.0201,0.0281,0.0256,0.0244,0.0078,-0.0157,-0.03,-0.0422,-0.0424,-0.0459,-0.0452,-0.0445,-0.0499,-0.0538,-0.0535,-0.0535,-0.0535,-0.0535,-0.0535,0,-0.012,-0.0115,-0.0067,-0.0033,0.0019,0.0061,0.0131,0.0168,0.0218,0.0305,0.0325,0.0175,0.0002,-0.0146,-0.0358,-0.0514,-0.0487,-0.0536,-0.0469,-0.046,-0.0451,-0.0503,-0.0542,-0.0541,-0.0541,-0.0541,0,0,-0.0114,-0.0094,-0.007,-0.0003,0.0042,0.0097,0.0126,0.0193,0.0248,0.0306,0.0335,0.0307,0.006,-0.0089,-0.0303,-0.0412,-0.0387,-0.0425,-0.0413,-0.0303,-0.0291,-0.0412,-0.0485,0,0,0,0,0]}],[{"header":{"parameterUnit":"m.s-1","parameterCategory":2,"la1":30.2991,"la2":30.254,"lo1":-89.0895,"lo2":-89.0444,"dy":0.0017,"dx":0.0017,"nx":28,"ny":28,"refTime":"2025-07-09T21:00:00:Z","depth":"4","parameterNumber":2,"parameterNumberName":"U-component_of_CURRENTS"},"data":[0,0,0,0,0,0,0,0,0,0,0,0,0,0,0,0,0,0,0,0,0,0,0,0,0,0,0,0,0,0,0,0,0,0,0,0,0,0,0,0,0,0,0,0,0,0,0,0,0,0,0,0,0,0,0,0,0,0,-0.0121,-0.0121,0,-0.0101,-0.0101,-0.0101,-0.0096,-0.0096,-0.0096,-0.0096,-0.0088,-0.0088,-0.0088,0,0,0,0,0,0,0,0,0,0,0,0,0,-0.0164,-0.0164,-0.0121,-0.0121,-0.0121,-0.0101,-0.0101,-0.0101,-0.0096,-0.0096,-0.0096,-0.0096,-0.0089,-0.0088,-0.0088,0,0,0,0,0,0,0,0,0,0,0,0,0,-0.0146,-0.0163,-0.0121,-0.0115,-0.0115,-0.0101,-0.0101,-0.0101,-0.0096,-0.0096,-0.0096,-0.0096,-0.0089,-0.0088,-0.0088,-0.0084,0,0,-0.0087,-0.0086,0,0,0,0,0,0,0,0,-0.0147,-0.0144,-0.0117,-0.0116,-0.0115,-0.0101,-0.0113,-0.0095,-0.0096,-0.0104,-0.0096,-0.0096,-0.0093,-0.0092,-0.0089,-0.0083,-0.0083,-0.0087,-0.0086,-0.0086,-0.0086,0,0,0,0,0,0,0,-0.0148,-0.0145,-0.0114,-0.0116,-0.0115,-0.0117,-0.0114,-0.011,-0.0099,-0.0103,-0.0103,-0.0099,-0.0093,-0.009,-0.0089,-0.0083,-0.0087,-0.0086,-0.0086,-0.0086,-0.0062,-0.0062,0,0,0,0,0,0,-0.0148,-0.0146,-0.0115,-0.0113,-0.013,-0.0116,-0.0113,-0.0106,-0.0099,-0.0098,-0.0099,-0.0099,-0.009,-0.009,-0.0089,-0.0065,-0.0086,-0.0086,-0.0086,-0.0062,-0.0062,-0.0061,0,0,0,0,0,0,-0.0149,-0.0145,-0.0116,-0.0129,-0.0125,-0.0115,-0.0107,-0.0105,-0.0102,-0.0095,-0.0095,-0.0097,-0.009,-0.0089,-0.0082,-0.0066,-0.0086,-0.0085,-0.0063,-0.0062,-0.0062,-0.003,0,0,0,0,0,0,-0.015,-0.0146,-0.0144,-0.0129,-0.0125,-0.0106,-0.0107,-0.0105,-0.0099,-0.0099,-0.0093,-0.0092,-0.009,-0.0083,-0.0082,-0.0066,-0.0085,-0.0063,-0.0063,-0.0062,-0.0032,-0.0029,-0.0026,0,0,0,0,0,-0.0152,-0.0146,-0.0144,-0.014,-0.0121,-0.0106,-0.0104,-0.0097,-0.0099,-0.0095,-0.0091,-0.0093,-0.0077,-0.0082,-0.0081,-0.0064,-0.0064,-0.0063,-0.0062,-0.0033,-0.0029,-0.0026,0,0,0,0,0,0,-0.0167,-0.0145,-0.0142,-0.0131,-0.0119,-0.0105,-0.0101,-0.0097,-0.0091,-0.0091,-0.0089,-0.0087,-0.0076,-0.0077,-0.0082,-0.0056,-0.007,-0.0069,-0.0049,-0.0045,-0.0042,-0.0016,-0.0085,0,0,0,0,0,-0.0169,-0.0158,-0.014,-0.0133,-0.0125,-0.0114,-0.0108,-0.0102,-0.0092,-0.009,-0.0085,-0.0079,-0.0071,-0.0064,-0.0061,-0.0046,-0.0037,-0.0035,-0.0032,-0.0029,-0.0008,0.0011,0.0018,-0.0059,-0.0059,-0.0059,0,0,-0.0175,-0.016,-0.0156,-0.0135,-0.0126,-0.0105,-0.0111,-0.0098,-0.0078,-0.009,-0.0068,-0.0072,-0.0067,-0.005,-0.0044,-0.0047,-0.0005,-0.0028,-0.0026,-0.0006,0.0013,0.0021,0.0028,-0.0058,-0.0058,-0.0058,0,0,-0.0172,-0.0165,-0.0151,-0.0136,-0.0117,-0.0105,-0.01,-0.0082,-0.0073,-0.0054,-0.0056,-0.0049,-0.0038,-0.0026,-0.0019,0.0001,0.0005,-0.0002,0.0042,0.006,0.0067,0.0073,0.0088,0.0095,0.0005,0.0005,0.0005,0,-0.018,-0.0155,-0.0147,-0.0124,-0.0107,-0.0101,-0.0077,-0.0064,-0.0046,-0.003,-0.0043,-0.0017,-0.0021,0.0013,0.0023,0.0011,0.0022,0.0028,0.0065,0.0072,0.0078,0.0091,0.0099,0.0007,0.0007,0.0007,0.0006,0,-0.016,-0.0139,-0.0129,-0.0094,-0.0077,-0.0059,-0.0033,-0.0017,-0.0008,0.0009,0.0035,0.003,0.005,0.0046,0.0045,0.0087,0.0081,0.0062,0.0059,0.0087,0.0099,0.0107,0.0009,0.0009,0.0008,0.0008,0,0,-0.0179,-0.0125,-0.0121,-0.0099,-0.0058,-0.0044,-0.0004,0.0035,0.006,0.0075,0.0108,0.0124,0.0121,0.0129,0.0121,0.0142,0.0184,0.013,0.013,0.015,0.023,0.0244,0.0254,0.0174,0.0176,0.0177,0.022,0,-0.0165,-0.0119,-0.0091,-0.0049,-0.0024,0.0005,0.0039,0.0075,0.0098,0.0128,0.0141,0.0162,0.0153,0.0156,0.0181,0.0177,0.0207,0.0175,0.0196,0.0197,0.0211,0.0264,0.0182,0.0225,0.0227,0.0228,0.0229,0,-0.0153,-0.0121,-0.0071,-0.0022,-0.0009,0.0024,0.0078,0.0111,0.0163,0.0178,0.0214,0.0215,0.0254,0.0228,0.0272,0.0253,0.0259,0.0256,0.0257,0.0271,0.0226,0.0192,0.0243,0.0242,0.0241,0.024,0.0239,0,-0.017,-0.0113,-0.0072,-0.0052,0.001,0.0044,0.0079,0.0134,0.0167,0.0219,0.0239,0.0276,0.0291,0.0311,0.0319,0.0298,0.0361,0.032,0.0343,0.0342,0.03,0.0293,0.0366,0.0366,0.0366,0.0366,0.0366,0,-0.0165,-0.0138,-0.0073,-0.0047,0.0003,0.0044,0.0101,0.0141,0.0195,0.0245,0.0268,0.0308,0.0316,0.0347,0.0347,0.0383,0.0386,0.0378,0.0368,0.031,0.0303,0.0305,0.0297,0.0368,0.0367,0.0367,0.0367,0,-0.0181,-0.0143,-0.0088,-0.0016,0.0005,0.0049,0.0121,0.0158,0.0207,0.0273,0.0292,0.0344,0.0396,0.0402,0.043,0.0421,0.0441,0.0451,0.0406,0.0387,0.04,0.0393,0.048,0.0481,0.0482,0.0483,0.0484,0,-0.0188,-0.0156,-0.0065,-0.0023,0.002,0.008,0.012,0.017,0.0211,0.0304,0.0336,0.0401,0.0435,0.049,0.0494,0.0507,0.0498,0.0497,0.0447,0.0437,0.0418,0.041,0.0402,0.0485,0.0485,0.0486,0.0486,0,-0.018,-0.0135,-0.0074,0.0004,0.0062,0.0105,0.0166,0.0192,0.026,0.0294,0.0386,0.0429,0.0492,0.0515,0.0532,0.0535,0.0489,0.0507,0.0504,0.0456,0.0444,0.0422,0.0414,0.0489,0.0489,0.0488,0.0488,0,-0.0165,-0.0106,-0.002,0.0053,0.01,0.0135,0.016,0.0221,0.0261,0.0352,0.0391,0.0464,0.0507,0.0534,0.0555,0.056,0.0542,0.0508,0.0505,0.0501,0.0488,0.0474,0.0547,0,0,0,0,0,-0.0144,-0.0058,0.0014,0.0099,0.0128,0.015,0.0195,0.0215,0.0269,0.0333,0.0362,0.0427,0.049,0.0524,0.0532,0.0551,0.0528,0.0557,0.0482,0.0508,0.0504,0.0486,0,0,0,0,0,0,-0.0118,-0.003,0.0033,0.0102,0.0147,0.0175,0.02,0.0235,0.0268,0.0329,0.0362,0.041,0.0464,0.0484,0.0528,0.0535,0.0483,0.0595,0.0594,0.051,0.0507,0.0503,0.0484,0,0,0,0,0]},{"header":{"parameterUnit":"m.s-1","parameterCategory":2,"la1":30.2991,"la2":30.254,"lo1":-89.0895,"lo2":-89.0444,"dy":0.0017,"dx":0.0017,"nx":28,"ny":28,"refTime":"2025-07-09T21:00:00:Z","depth":"4","parameterNumber":3,"parameterNumberName":"V-component_of_CURRENTS"},"data":[0,0,0,0,0,0,0,0,0,0,0,0,0,0,0,0,0,0,0,0,0,0,0,0,0,0,0,0,0,0,0,0,0,0,0,0,0,0,0,0,0,0,0,0,0,0,0,0,0,0,0,0,0,0,0,0,0,0,-0.0,-0.0,0,-0.0002,-0.0002,-0.0002,-0.0002,-0.0002,-0.0002,-0.0002,-0.0046,-0.0047,-0.0048,0,0,0,0,0,0,0,0,0,0,0,0,0,-0.002,-0.0019,-0.0,-0.0,0.0,-0.0002,-0.0002,-0.0002,-0.0002,-0.0002,-0.0002,-0.0002,-0.0045,-0.0047,-0.0048,0,0,0,0,0,0,0,0,0,0,0,0,0,-0.0016,-0.0019,-0.0,-0.0,0.0,-0.0002,-0.0002,-0.0002,-0.0002,-0.0002,-0.0002,-0.0002,-0.0045,-0.0047,-0.0048,-0.0061,0,0,-0.0054,-0.0055,0,0,0,0,0,0,0,0,-0.0016,-0.0015,-0.0,-0.0,0.0,-0.0001,-0.0025,-0.0024,-0.0002,-0.0002,-0.0002,-0.0002,-0.0034,-0.0037,-0.0038,-0.0064,-0.0065,-0.0054,-0.0055,-0.0056,-0.0057,0,0,0,0,0,0,0,-0.0016,-0.0015,-0.0001,-0.0,0.0,-0.0008,-0.0007,-0.0025,-0.002,-0.0002,-0.0002,-0.0001,-0.0035,-0.0036,-0.0039,-0.0066,-0.0054,-0.0056,-0.0057,-0.0058,-0.0116,-0.0116,0,0,0,0,0,0,-0.0014,-0.0015,-0.0001,-0.0001,-0.0007,-0.0007,-0.0006,-0.0001,-0.0019,-0.0021,-0.0001,-0.0001,-0.0033,-0.0037,-0.0041,-0.0021,-0.0056,-0.0058,-0.0059,-0.0115,-0.0116,-0.0116,0,0,0,0,0,0,-0.0014,-0.0012,-0.0001,-0.0008,-0.0007,-0.0007,-0.0001,-0.0001,-0.0005,-0.0018,-0.0021,-0.0005,-0.0033,-0.0038,-0.0057,-0.0024,-0.0059,-0.006,-0.0115,-0.0115,-0.0116,-0.0005,0,0,0,0,0,0,-0.0015,-0.0012,-0.0011,-0.0008,-0.0007,0.0008,-0.0001,-0.0002,-0.0004,-0.0004,-0.0022,-0.0025,-0.0033,-0.0054,-0.0059,-0.0027,-0.0062,-0.0114,-0.0115,-0.0116,-0.0008,-0.0001,0.0004,0,0,0,0,0,-0.0015,-0.0001,-0.0011,-0.0009,-0.0004,0.0008,0.0008,0.0008,-0.0004,0.0003,-0.0018,-0.0025,-0.0063,-0.0056,-0.0061,-0.0029,-0.0114,-0.0115,-0.0116,-0.001,-0.0003,0.0004,0,0,0,0,0,0,-0.0008,0.0,-0.001,0.0004,0.0006,0.0009,0.0015,0.0005,-0.0005,-0.0009,-0.003,-0.0034,-0.004,-0.0065,-0.0057,-0.0055,-0.009,-0.0092,-0.0008,-0.0001,0.0004,0.0025,-0.0063,0,0,0,0,0,-0.0008,0.0005,0.0005,0.0015,0.0017,0.001,0.0011,0.001,0.0003,-0.0001,-0.0014,-0.0037,-0.0049,-0.005,-0.0072,-0.0068,-0.0107,-0.0057,-0.0051,-0.0045,-0.0037,-0.0074,-0.007,-0.012,-0.012,-0.012,0,0,-0.0002,0.0003,0.0009,0.0017,0.0017,0.005,0.0012,0.0021,0.0053,-0.0006,0.0021,-0.0021,-0.0051,-0.0041,-0.0045,-0.0053,-0.0054,-0.0046,-0.004,-0.0035,-0.0075,-0.007,-0.0065,-0.012,-0.012,-0.012,0,0,0.0043,0.0019,0.0058,0.0064,0.0069,0.0068,0.007,0.0069,0.0072,0.0078,0.0045,0.0026,0.0003,0.0005,-0.0001,0.0018,-0.0031,-0.0004,0.0063,0.0027,0.0031,0.0035,-0.0009,-0.0011,0.0012,0.0012,0.0013,0,0.0051,0.0093,0.0069,0.0113,0.0119,0.0083,0.0124,0.0133,0.0127,0.0115,0.0099,0.0048,0.0039,0.0048,0.0066,0.004,-0.0009,0.005,0.0039,0.0041,0.0043,-0.0003,-0.0006,0.0018,0.0017,0.0017,0.0016,0,0.0141,0.0163,0.0183,0.0226,0.023,0.025,0.0254,0.0251,0.0229,0.0221,0.0196,0.0167,0.012,0.0134,0.0119,0.0124,0.0074,0.0046,0.0033,0.0056,0.0004,-0.0001,0.0025,0.0023,0.0022,0.002,0,0,0.0184,0.0237,0.0242,0.0233,0.028,0.026,0.0329,0.0333,0.0296,0.0319,0.0276,0.0308,0.0234,0.022,0.0183,0.0192,0.0184,0.0134,0.013,0.0112,0.0082,0.0063,0.0055,0.0142,0.0142,0.0142,0.0041,0,0.0256,0.0316,0.0352,0.0379,0.0382,0.0375,0.0401,0.0393,0.0362,0.0306,0.0308,0.0243,0.0284,0.0214,0.0242,0.0164,0.0174,0.0212,0.0042,0.0037,0.0037,0.0051,0.0141,0.0037,0.0036,0.0035,0.0035,0,0.034,0.0345,0.0394,0.0358,0.0358,0.0378,0.0315,0.0333,0.0298,0.0262,0.0243,0.0191,0.0203,0.02,0.0176,0.0184,0.015,0.0128,0.0121,0.0064,0.0011,0.0005,0.0025,0.0026,0.0027,0.0027,0.0028,0,0.0303,0.0357,0.0365,0.037,0.0359,0.0353,0.0336,0.0305,0.0265,0.0203,0.0138,0.0139,0.0078,0.0084,0.007,0.0091,0.0016,0.0023,-0.0008,-0.0012,-0.0012,-0.0015,0.0012,0.0012,0.0012,0.0012,0.0013,0,0.0337,0.0324,0.0326,0.031,0.0247,0.0268,0.019,0.0172,0.0124,0.0073,0.0076,0.003,0.0042,0.0008,0.0023,-0.0011,-0.0026,0.0006,-0.0034,0.0034,0.0037,-0.0016,-0.0018,0.0008,0.0009,0.001,0.0011,0,0.0286,0.032,0.0276,0.0246,0.0228,0.0157,0.0101,0.0041,0.0011,-0.0055,-0.0075,-0.0088,-0.0107,-0.0099,-0.013,-0.0103,-0.0122,-0.0132,-0.0077,-0.0114,-0.0113,-0.0108,-0.0176,-0.0177,-0.0178,-0.0179,-0.018,0,0.0265,0.0249,0.0186,0.0141,0.0127,0.0046,0.0004,-0.0024,-0.0053,-0.0099,-0.012,-0.0172,-0.0163,-0.021,-0.0199,-0.0206,-0.0183,-0.0215,-0.011,-0.0097,-0.0129,-0.0123,-0.0117,-0.0182,-0.0182,-0.0182,-0.0183,0,0.0177,0.016,0.0107,0.0036,-0.0018,-0.0073,-0.0111,-0.0139,-0.0136,-0.0179,-0.0156,-0.0166,-0.0205,-0.0195,-0.0235,-0.0217,-0.0201,-0.0226,-0.0222,-0.0123,-0.0106,-0.0135,-0.0128,-0.0187,-0.0186,-0.0186,-0.0186,0,0.008,0.0018,-0.0025,-0.0092,-0.0134,-0.0134,-0.0164,-0.0152,-0.0176,-0.0166,-0.0159,-0.017,-0.018,-0.0206,-0.0223,-0.0235,-0.0203,-0.0177,-0.0174,-0.017,-0.0121,-0.0095,-0.0204,0,0,0,0,0,-0.0018,-0.0076,-0.0141,-0.019,-0.02,-0.0202,-0.0202,-0.02,-0.0185,-0.0158,-0.0145,-0.0149,-0.0165,-0.0186,-0.0194,-0.0253,-0.0232,-0.0267,-0.0205,-0.0209,-0.0205,-0.0146,0,0,0,0,0,0,-0.0096,-0.0167,-0.0172,-0.0214,-0.0235,-0.0236,-0.0217,-0.0202,-0.0169,-0.0153,-0.0154,-0.0159,-0.0179,-0.0158,-0.0198,-0.0209,-0.017,-0.0283,-0.0283,-0.0212,-0.0208,-0.0204,-0.0142,0,0,0,0,0]}]]